Weather History for KANQ - May, 2014

Change the Weather History Date:

Thursday, May 29, 2014

  Actual Average (KFWA) Record (KFWA)
Temperature  
Mean Temperature 66 °F 65 °F  
Max Temperature 78 °F 76 °F 93 °F (1942)
Min Temperature 55 °F 54 °F 33 °F (1902)
Degree Days  
Heating Degree Days 0 3  
Month to date heating degree days 185  
Since 1 July heating degree days 6067  
Cooling Degree Days 2 3  
Month to date cooling degree days 43  
Year to date cooling degree days 51  
Growing Degree Days 16 (Base 50)    
Moisture  
Dew Point 61 °F    
Average Humidity 77    
Maximum Humidity 94    
Minimum Humidity 68    
Precipitation  
Precipitation 0.00 in 0.17 in 0.81 in (1972)
Month to date precipitation 3.93  
Year to date precipitation 14.46  
Snow  
Snow 0.00 in 0.00 in 0.00 in ()
Month to date snowfall 0.0  
Since 1 July snowfall 33.5  
Snow Depth -    
Sea Level Pressure  
Sea Level Pressure 30.10 in    
Wind  
Wind Speed 5 mph (East)    
Max Wind Speed 10 mph    
Max Gust Speed -    
Visibility 10 miles    
Events      
T = Trace of Precipitation, MM = Missing Value Source: NWS Daily Summary

Daily Weather History Graph

Daily Weather History Graph

Search for Another Location

Airport or City:

Trip Planner

Search our weather history database for the weather conditions in past years. The results will help you decide how hot, cold, wet, or windy it might be!

Date:

Astronomy

May. 29, 2014 Rise Set
Actual Time 6:09 AM EDT 9:05 PM EDT
Civil Twilight 5:36 AM EDT 9:39 PM EDT
Nautical Twilight 4:55 AM EDT 10:21 PM EDT
Astronomical Twilight 4:06 AM EDT 11:10 PM EDT
Moon 7:03 AM EDT (5/29) 9:54 PM EDT (5/29)
Length of Visible Light 16h 02m
Length of Day
14h 56m
New Moon, 1% of the Moon is Illuminated
May 29
New Moon
Jun 5
First Quarter
Jun 13
Full
Jun 19
Last Quarter
Jun 27
New

Hourly Weather History & Observations

Time (EDT) Temp. Dew Point Humidity Pressure Visibility Wind Dir Wind Speed Gust Speed Precip Events Conditions
12:15 AM 64.4 °F 55.4 °F 73% 30.07 in 10.0 mi ESE 5.8 mph - N/A   Clear
12:35 AM 64.4 °F 55.4 °F 73% 30.07 in 10.0 mi East 3.5 mph - N/A   Clear
12:55 AM 64.4 °F 55.4 °F 73% 30.07 in 10.0 mi East 5.8 mph - N/A   Clear
1:15 AM 62.6 °F 55.4 °F 77% 30.07 in 10.0 mi ESE 4.6 mph - N/A   Scattered Clouds
1:35 AM 62.6 °F 55.4 °F 77% 30.08 in 10.0 mi ESE 5.8 mph - N/A   Mostly Cloudy
1:55 AM 64.4 °F 55.4 °F 73% 30.07 in 10.0 mi ESE 8.1 mph - N/A   Overcast
2:15 AM 62.6 °F 55.4 °F 77% 30.07 in 10.0 mi ESE 6.9 mph - N/A   Overcast
2:35 AM 62.6 °F 53.6 °F 72% 30.06 in 10.0 mi ESE 9.2 mph - N/A   Scattered Clouds
2:55 AM 62.6 °F 51.8 °F 68% 30.06 in 10.0 mi ESE 10.4 mph - N/A   Clear
3:15 AM 60.8 °F 51.8 °F 72% 30.07 in 10.0 mi ESE 5.8 mph - N/A   Partly Cloudy
3:35 AM 60.8 °F 51.8 °F 72% 30.06 in 10.0 mi East 5.8 mph - N/A   Partly Cloudy
3:55 AM 60.8 °F 51.8 °F 72% 30.07 in 10.0 mi East 3.5 mph - N/A   Clear
4:15 AM 59.0 °F 51.8 °F 77% 30.06 in 10.0 mi East 3.5 mph - N/A   Clear
4:55 AM 57.2 °F 51.8 °F 82% 30.07 in 10.0 mi East 4.6 mph - N/A   Clear
5:15 AM 57.2 °F 51.8 °F 82% 30.06 in 10.0 mi NE 4.6 mph - N/A   Clear
5:55 AM 57.2 °F 51.8 °F 82% 30.07 in 10.0 mi ENE 3.5 mph - N/A   Clear
6:15 AM 57.2 °F 53.6 °F 88% 30.08 in 10.0 mi East 4.6 mph - N/A   Clear
6:35 AM 55.4 °F 53.6 °F 94% 30.08 in 10.0 mi ENE 3.5 mph - N/A   Clear
7:35 AM 57.2 °F 53.6 °F 88% 30.10 in 10.0 mi East 4.6 mph - N/A   Clear
7:55 AM 59.0 °F 53.6 °F 82% 30.10 in 10.0 mi East 5.8 mph - N/A   Clear
8:15 AM 60.8 °F 53.6 °F 77% 30.11 in 10.0 mi East 8.1 mph - N/A   Clear
8:35 AM 60.8 °F 53.6 °F 77% 30.11 in 10.0 mi ESE 5.8 mph - N/A   Clear
8:55 AM 62.6 °F 55.4 °F 77% 30.11 in 10.0 mi East 6.9 mph - N/A   Clear
9:15 AM 62.6 °F 55.4 °F 77% 30.12 in 10.0 mi East 8.1 mph - N/A   Clear
9:35 AM 62.6 °F 55.4 °F 77% 30.13 in 10.0 mi ENE 6.9 mph - N/A   Clear
9:55 AM 62.6 °F 53.6 °F 72% 30.13 in 10.0 mi East 4.6 mph - N/A   Clear
10:15 AM 64.4 °F 53.6 °F 68% 30.13 in 10.0 mi ESE 6.9 mph - N/A   Clear
10:35 AM 64.4 °F 55.4 °F 73% 30.13 in 10.0 mi ESE 4.6 mph - N/A   Clear
10:55 AM 66.2 °F 57.2 °F 73% 30.13 in 10.0 mi East 4.6 mph - N/A   Clear
11:15 AM 68.0 °F 60.8 °F 78% 30.13 in 10.0 mi ESE 3.5 mph - N/A   Clear
11:35 AM 69.8 °F 62.6 °F 78% 30.13 in 10.0 mi Variable 4.6 mph - N/A   Clear
11:55 AM 71.6 °F 62.6 °F 73% 30.13 in 10.0 mi ESE 8.1 mph - N/A   Clear
12:15 PM 71.6 °F 64.4 °F 78% 30.13 in 10.0 mi ESE 5.8 mph - N/A   Clear
12:35 PM 71.6 °F 64.4 °F 78% 30.12 in 10.0 mi ENE 6.9 mph - N/A   Clear
12:55 PM 73.4 °F 64.4 °F 73% 30.13 in 10.0 mi Variable 6.9 mph - N/A   Clear
1:15 PM 73.4 °F 66.2 °F 78% 30.12 in 10.0 mi Calm Calm - N/A   Clear
1:35 PM 75.2 °F 66.2 °F 73% 30.12 in 10.0 mi East 6.9 mph - N/A   Clear
1:55 PM 75.2 °F 69.8 °F 83% 30.11 in 10.0 mi SE 4.6 mph - N/A   Clear
2:15 PM 75.2 °F 69.8 °F 83% 30.10 in 10.0 mi ENE 8.1 mph - N/A   Clear
2:35 PM 75.2 °F 69.8 °F 83% 30.11 in 10.0 mi Variable 5.8 mph - N/A   Scattered Clouds
2:55 PM 75.2 °F 69.8 °F 83% 30.11 in 10.0 mi NNE 5.8 mph - N/A   Scattered Clouds
3:15 PM 75.2 °F 69.8 °F 83% 30.11 in 10.0 mi Variable 3.5 mph - N/A   Clear
3:35 PM 77.0 °F 69.8 °F 78% 30.10 in 10.0 mi Calm Calm - N/A   Partly Cloudy
3:55 PM 77.0 °F 69.8 °F 78% 30.09 in 10.0 mi SE 5.8 mph - N/A   Clear
4:15 PM 78.8 °F 71.6 °F 78% 30.07 in 10.0 mi Calm Calm - N/A   Clear
4:35 PM 78.8 °F 71.6 °F 78% 30.07 in 10.0 mi Calm Calm - N/A   Clear
4:55 PM 78.8 °F 73.4 °F 83% 30.07 in 10.0 mi SE 6.9 mph - N/A   Clear
5:15 PM 78.8 °F 71.6 °F 78% 30.07 in 10.0 mi ENE 8.1 mph - N/A   Clear
5:35 PM 78.8 °F 71.6 °F 78% 30.07 in 10.0 mi Calm Calm - N/A   Clear
5:55 PM 78.8 °F 71.6 °F 78% 30.07 in 10.0 mi Calm Calm - N/A   Clear
6:15 PM 78.8 °F 71.6 °F 78% 30.07 in 10.0 mi SE 4.6 mph - N/A   Clear
6:35 PM 78.8 °F 71.6 °F 78% 30.08 in 10.0 mi East 5.8 mph - N/A   Clear
6:55 PM 78.8 °F 71.6 °F 78% 30.08 in 10.0 mi SE 5.8 mph - N/A   Clear
7:15 PM 78.8 °F 71.6 °F 78% 30.08 in 10.0 mi East 5.8 mph - N/A   Clear
7:35 PM 77.0 °F 69.8 °F 78% 30.08 in 10.0 mi ESE 3.5 mph - N/A   Clear
7:55 PM 75.2 °F 69.8 °F 83% 30.08 in 10.0 mi ESE 5.8 mph - N/A   Clear
8:15 PM 75.2 °F 68.0 °F 78% 30.08 in 10.0 mi East 3.5 mph - N/A   Clear
8:35 PM 73.4 °F 66.2 °F 78% 30.09 in 10.0 mi ENE 3.5 mph - N/A   Clear
8:55 PM 73.4 °F 64.4 °F 73% 30.09 in 10.0 mi ENE 5.8 mph - N/A   Clear
9:15 PM 71.6 °F 60.8 °F 69% 30.09 in 10.0 mi East 5.8 mph - N/A   Clear
9:35 PM 69.8 °F 60.8 °F 73% 30.10 in 10.0 mi East 4.6 mph - N/A   Clear
9:55 PM 69.8 °F 60.8 °F 73% 30.12 in 10.0 mi ESE 6.9 mph - N/A   Clear
10:15 PM 68.0 °F 57.2 °F 68% 30.13 in 10.0 mi ESE 5.8 mph - N/A   Clear
10:35 PM 66.2 °F 57.2 °F 73% 30.13 in 10.0 mi ESE 5.8 mph - N/A   Clear
10:55 PM 66.2 °F 57.2 °F 73% 30.14 in 10.0 mi ESE 6.9 mph - N/A   Clear
11:15 PM 64.4 °F 57.2 °F 77% 30.14 in 10.0 mi ESE 5.8 mph - N/A   Clear
11:35 PM 64.4 °F 55.4 °F 73% 30.14 in 10.0 mi ESE 6.9 mph - N/A   Clear
11:55 PM 62.6 °F 55.4 °F 77% 30.14 in 10.0 mi ESE 4.6 mph - N/A   Clear